Tracking 19245 objects as of 14-Aug-2018
HD Live streaming from Space Station
objects crossing your sky now

OPS 6582 (TRANSIT 5B-5)

Track OPS 6582 (TRANSIT 5B-5) now!
10-day predictions
OPS 6582 (TRANSIT 5B-5) is classified as:


NORAD ID: 965
Int'l Code: 1964-083D
Perigee: 1,024.2 km
Apogee: 1,085.3 km
Inclination: 90.0 °
Period: 106.1 minutes
Semi major axis: 7425 km
RCS: 1.0908 m2 (large)
Launch date: December 13, 1964
Source: United States (US)
Launch site: AIR FORCE WESTERN TEST RANGE (AFWTR)
aabbcc
Your satellite tracking list
Your tracking list is empty




NASA's NSSDC Master Catalog

Two Line Element Set (TLE):
1   965U 64083D   18224.92550267 +.00000016 +00000-0 +97970-5 0  9998
2   965 090.0134 192.2975 0041161 017.2871 073.2502 13.56719577655188
Source of the keplerian elements: AFSPC